Regional Weather Roundup
Issued by NWS Raleigh/Durham, NC

Current Version | Previous Version | Text Only | Print | Product List | Glossary On
Versions: 1 2 3 4 5 6 7 8 9 10 11 12 13 14 15 16 17 18 19 20 21 22 23 24 25 26 27 28 29 30 31 32 33 34 35 36 37 38 39 40 41 42 43 44 45 46 47 48 49 50
000 ASUS42 KRAH 150710 RWRRAH NORTH CAROLINA WEATHER ROUNDUP NATIONAL WEATHER SERVICE RALEIGH NC 300 AM EDT WED AUG 15 2018 NOTE: "FAIR" INDICATES FEW OR NO CLOUDS BELOW 12,000 FEET WITH NO SIGNIFICANT WEATHER AND/OR OBSTRUCTIONS TO VISIBILITY. NCZ001-053-055-056-065-067-150800- WESTERN NORTH CAROLINA CITY SKY/WX TMP DP RH WIND PRES REMARKS ASHEVILLE FAIR 67 65 93 CALM 30.14F JEFFERSON CLOUDY 63 61 93 CALM 30.18S MORGANTON CLOUDY 65 65 100 CALM 30.11S FOG HICKORY MOCLDY 69 68 96 NW3 30.06F RUTHERFORDTON NOT AVBL MOUNT AIRY FAIR 67 65 91 N5 30.09S BOONE CLOUDY 62 62 99 CALM 30.19F $$ NCZ021-022-025-041-071-084-088-150800- CENTRAL NORTH CAROLINA CITY SKY/WX TMP DP RH WIND PRES REMARKS CHARLOTTE FAIR 73 71 93 NW5 30.04F GREENSBORO MOCLDY 71 65 81 CALM 30.03F WINSTON-SALEM FAIR 71 65 81 CALM 30.05F RALEIGH-DURHAM FAIR 70 69 97 CALM 30.03S FORT BRAGG FAIR 73 72 94 CALM 30.00F FAYETTEVILLE FAIR 73 71 93 S6 30.01F BURLINGTON FAIR 71 68 90 CALM 30.02F LAURINBURG FAIR 72 71 97 S3 30.03F FOG $$ NCZ011-015-027-028-043-044-047-080-103-150800- NORTHEASTERN NORTH CAROLINA CITY SKY/WX TMP DP RH WIND PRES REMARKS ROCKY MT-WILSO FAIR 70 69 97 S3 30.01F GREENVILLE FAIR 70 70 100 CALM 30.02F WASHINGTON FAIR 72 70 94 CALM 30.01F ELIZABETH CITY FAIR 73 73 100 W7 29.99F MANTEO FAIR 76 71 84 W8 30.00S CAPE HATTERAS FAIR 80 76 87 W6 30.01S $$ NCZ078-087-090-091-093-098-101-150800- SOUTHEASTERN NORTH CAROLINA CITY SKY/WX TMP DP RH WIND PRES REMARKS LUMBERTON FAIR 72 70 93 CALM 30.01F FOG GOLDSBORO FAIR 72 70 95 CALM 29.99F KINSTON FAIR 73 71 93 W5 30.01F KENANSVILLE FAIR 72 72 100 CALM 30.02F FOG NEW BERN FAIR 73 73 100 SW5 30.02F CHERRY POINT FAIR 75 75 100 SW6 30.02 BEAUFORT FAIR 80 76 87 W14 30.01F JACKSONVILLE FAIR 75 73 93 W6 30.01F WILMINGTON FAIR 77 73 87 W5 30.02F $$

USA.gov is the U.S. government's official web portal to all federal, state and local government web resources and services.